TheGetRank SiteMap Page 2846
Home 2796 2797 2798 2799 2800 2801 2802 2803 2804 2805 2806 2807 2808 2809 2810 2811 2812 2813 2814 2815 2816 2817 2818 2819 2820 2821 2822 2823 2824 2825 2826 2827 2828 2829 2830 2831 2832 2833 2834 2835 2836 2837 2838 2839 2840 2841 2842 2843 2844 2845 2846 2847 2848 2849 2850 2851 2852 2853 2854 2855 2856 2857 2858 2859 2860 2861 2862 2863 2864 2865 2866 2867 2868 2869 2870 2871 2872 2873 2874 2875 2876 2877 2878 2879 2880 2881 2882 2883 2884 2885 2886 2887 2888 2889 2890 2891 2892 2893 2894 2895 2896
S.NO. Website Pagerank Alexa Rank Last Updated
2845000 tennisadviser.com 0 26634760 2011-09-27 18:56:34
2845001 artgrants.blogspot.com 0 20161661 2011-09-27 18:56:41
2845002 cxt.sofaandcouches.com.nu 0 10637 2011-09-27 18:56:44
2845003 tennislivestream.com 0 10570676 2011-09-27 18:56:47
2845004 interactive2.journalism.cuny.edu 0 4851 2011-09-27 18:56:50
2845005 tendollarplr.com 0 No Rank 2011-09-27 18:56:52
2845006 arthritisinhands.co.uk 0 4014400 2011-09-27 18:56:56
2845007 tenfriends.org 0 No Rank 2011-09-27 18:56:58
2845008 templeeventscenter.com 0 18219106 2011-09-27 18:56:59
2845009 patshullhall.co.uk 0 7470023 2011-09-27 18:57:27
2845010 templatecinema.com 0 No Rank 2011-09-27 18:57:32
2845011 templecitytoday.com 0 No Rank 2011-09-27 18:57:34
2845012 arthunting.com 0 No Rank 2011-09-27 18:57:38
2845013 telewizjakablowa.com 0 No Rank 2011-09-27 18:57:42
2845014 moneyartcollection.com 0 11895717 2011-11-29 19:06:50
2845015 uggmama.com 0 No Rank 2011-09-27 18:57:48
2845016 takarakuji.heartserguryintelaviv.wordpress.com 0 No Rank 2011-09-27 18:57:52
2845017 telephonelines.net 0 6408980 2011-09-27 18:58:02
2845018 mgross.journalism.cuny.edu 0 4851 2011-09-27 18:58:08
2845019 arthritisinfingers.net 0 2659840 2011-09-27 18:58:14
2845020 tele8noticias.gentina.com.ar 0 20764881 2011-09-27 18:58:14
2845021 tekoapublishing.com 0 2730575 2011-09-27 18:58:20
2845022 sgfr.ch 0 No Rank 2011-09-27 18:58:26
2845023 tekable.com 0 No Rank 2011-09-27 18:58:26
2845024 telegrafonline.ro 0 111508 2011-09-27 18:58:28
2845025 tefcotripe.com 0 No Rank 2011-09-27 18:58:32
2845026 teevanproductions.com 0 No Rank 2011-09-27 18:58:32
2845027 takarakuji.heartserguryinisrael.wordpress.com 0 No Rank 2011-09-27 18:58:36
2845028 teeshirtpersonnalise.com 0 9397471 2011-09-27 18:58:39
2845029 arthurcourtapts.com 0 No Rank 2011-09-27 18:58:41
2845030 teddybear-shop.com 0 No Rank 2011-09-27 18:58:46
2845031 tedacademy.org 0 No Rank 2011-09-27 18:58:52
2845032 techxchange.org 0 20921543 2011-09-27 18:58:59
2845033 techronnati.com 0 3698381 2011-09-27 18:59:08
2845034 techolabs.com 0 No Rank 2011-09-27 18:59:14
2845035 nana.pl 0 15232894 2011-09-27 18:59:15
2845036 technoline.co.in 0 19660341 2011-09-27 18:59:19
2845037 arthursmall.com 0 No Rank 2011-09-27 18:59:22
2845038 tecsa.com 0 15929219 2011-09-27 18:59:23
2845039 technobig.com 0 6553446 2011-09-27 18:59:24
2845040 tecchan.org 0 No Rank 2011-09-27 18:59:32
2845041 arthurwait.com 0 No Rank 2011-09-27 18:59:32
2845042 teamdurstphoto.com 0 No Rank 2011-09-27 18:59:38
2845043 liga.no 0 No Rank 2011-09-27 18:59:41
2845044 teambuildingatlanta.com 0 No Rank 2011-09-27 18:59:43
2845045 certified-partner.de.pe 0 No Rank 2011-09-27 18:59:46
2845046 teakfurnituredesigns.com 0 3235885 2011-09-27 18:59:50
2845047 articles.search-engine-first-place.com 0 11630554 2011-09-27 18:59:51
2845048 bbs.jbyf.net 0 281449 2011-09-27 18:59:52
2845049 teamcyberspeed.com 0 13127376 2011-09-27 18:59:55
2845050 teacherslearningcenter.com 0 No Rank 2011-09-27 18:59:57
2845051 homepager.tripod.sofaandcouches.com.nu 0 10637 2011-09-27 19:00:00
2845052 articlevie.com 0 334539 2011-09-27 19:00:05
2845053 tdsaarchitecture.com 0 No Rank 2011-09-27 19:00:08
2845054 tdlmartin.com 0 No Rank 2011-09-27 19:00:14
2845055 articulosdelbebe.com 0 No Rank 2011-09-27 19:00:18
2845056 tdcgraphic.com 0 No Rank 2011-09-27 19:00:19
2845057 tcscompounding.com 0 No Rank 2011-09-27 19:00:19
2845058 tc-p54vt25.info 0 No Rank 2011-09-27 19:00:31
2845059 tbwalimelight.com 0 7486897 2011-09-27 19:00:35
2845060 tbgfilmlocationsetc.com 0 No Rank 2011-09-27 19:00:38
2845061 taylortool.net 0 No Rank 2011-09-27 19:00:42
2845062 taylorleasing.com 0 No Rank 2011-09-27 19:00:43
2845063 tayloreastlongmeadow.com 0 No Rank 2011-09-27 19:00:49
2845064 tattoos.co.ke 0 8166312 2011-09-27 19:00:51
2845065 tattooink.tv 0 680751 2011-09-27 19:00:58
2845066 tattooheathen.com 0 No Rank 2011-09-27 19:00:58
2845067 tatilrehberleri.com 0 No Rank 2011-09-27 19:01:05
2845068 tastudio.com 0 12518979 2011-09-27 19:01:08
2845069 tasrox.com 0 No Rank 2011-09-27 19:01:11
2845070 bpk.com 0 1625777 2011-09-27 19:01:13
2845071 taslyherbal.com 0 4183511 2011-09-27 19:01:17
2845072 taryll1.selia.pl 0 2946440 2011-09-27 19:01:27
2845073 tarif-market.ru 0 12634518 2011-09-27 19:01:35
2845074 tappita.com 0 No Rank 2011-09-27 19:01:41
2845075 tapiadesign.com 0 7734592 2011-09-27 19:01:42
2845076 articulosimpresos.com 0 11150827 2011-09-27 19:01:44
2845077 live.jbyf.net 0 281449 2011-09-27 19:01:50
2845078 tanemusic.com 0 No Rank 2011-09-27 19:01:53
2845079 tampaspa.com 0 19575185 2011-09-27 19:01:53
2845080 tampabizcards.com 0 23360947 2011-09-27 19:01:59
2845081 tamillankasri.com 0 No Rank 2011-09-27 19:02:09
2845082 articulosdigitales.com 0 11231811 2011-09-27 19:02:10
2845083 tamerandmelissa.com 0 No Rank 2011-09-27 19:02:17
2845084 qlub.nl 0 18317671 2011-09-27 19:02:20
2845085 tamdu.com 0 No Rank 2011-09-27 19:02:25
2845086 articulospublicitariosabc.com 0 No Rank 2011-09-27 19:02:27
2845087 tammyswebsite.ca 0 No Rank 2011-09-27 19:02:30
2845088 taksinkuljettajat.fi 0 No Rank 2011-09-27 19:02:37
2845089 artidamania.com 0 16456709 2011-09-27 19:02:39
2845090 taiyoudou.com 0 No Rank 2011-09-27 19:02:41
2845091 taichi-wudang.com 0 No Rank 2011-09-27 19:02:47
2845092 maiz.at 0 6284430 2011-09-27 19:02:47
2845093 tagdubai.com 0 No Rank 2011-09-27 19:02:48
2845094 taffie-zoop.flappie.nl 0 1280102 2011-09-27 19:02:53
2845095 tacrec.org 0 No Rank 2011-09-27 19:02:57
2845096 tablebythewindow.com 0 11605969 2011-09-27 19:03:02
2845097 artificialgirlmods.blog.com 0 1087 2011-09-27 19:03:02
2845098 t20livetweets.com 0 7662477 2011-09-27 19:03:04
2845099 libraryresources.blc.edu 0 2579959 2011-09-27 19:03:10
2845100 t-sch.su 0 No Rank 2011-09-27 19:03:12
2845101 artificialjewelry.com 0 3738263 2011-09-27 19:03:12
2845102 sztoler.pl 0 No Rank 2011-09-27 19:03:19
2845103 artificiallawnsuk.com 0 No Rank 2011-09-27 19:03:19
2845104 sztum.info.pl 0 22524854 2011-09-27 19:03:19
2845105 114.jbyf.net 0 281449 2011-09-27 19:03:20
2845106 szazszorszepovoda.hu 0 No Rank 2011-09-27 19:03:27
2845107 szno1.net 0 No Rank 2011-09-27 19:03:29
2845108 aiheyue.com.cn 0 2915005 2011-09-27 19:03:50
2845109 sysrevpharm.org 0 No Rank 2011-09-27 19:03:54
2845110 syonlogistics.com 0 No Rank 2011-09-27 19:03:56
2845111 power-dose.com 0 No Rank 2011-09-27 19:03:59
2845112 artikd.com 0 No Rank 2011-09-27 19:04:00
2845113 syntheticlawnsupply.com 0 No Rank 2011-09-27 19:04:06
2845114 synergy-healing.com 0 No Rank 2011-09-27 19:04:08
2845115 syn-vision.com 0 No Rank 2011-09-27 19:04:17
2845116 symiholidays.gr 0 28396111 2011-09-27 19:04:24
2845117 sylviameier.com 0 8907635 2011-09-27 19:04:26
2845118 lg-lcd-tv.us 0 No Rank 2011-09-27 19:04:29
2845119 sylviadana.com 0 No Rank 2011-09-27 19:04:32
2845120 artinditchling.co.uk 0 No Rank 2011-09-27 19:04:32
2845121 sylphid-kennel.com 0 18481114 2011-09-27 19:04:34
2845122 anicodirect.com 0 1316624 2011-09-27 19:04:36
2845123 syarifurqon.com 0 18682552 2011-09-27 19:04:48
2845124 heidi.community.uaf.edu 0 64135 2011-09-27 19:04:53
2845125 swimmingpoolvacuum.org 0 No Rank 2011-09-27 19:05:01
2845126 swiatbarbie.fm.interia.pl 0 708 2011-09-27 19:05:03
2845127 meoc.ch 0 No Rank 2011-09-27 19:05:03
2845128 swfsa.org 0 No Rank 2011-09-27 19:05:10
2845129 lucian.uchicago.edu 0 7593 2011-09-27 19:05:10
2845130 sweetsugarbelle.com 0 109604 2011-09-27 19:05:13
2845131 sweetitch.net 0 No Rank 2011-09-27 19:05:17
2845132 swedpatch.se 0 13837780 2011-09-27 19:05:22
2845133 super-publicidad.com 0 18102065 2011-09-27 19:05:25
2845134 swaggerbranding.com 0 No Rank 2011-09-27 19:05:39
2845135 7ty.org 0 11836865 2011-09-27 19:05:42
2845136 aku-danceritaku.blogspot.com 0 No Rank 2011-09-27 19:05:42
2845137 svenpistor.de 0 21967529 2011-09-27 19:05:47
2845138 svetlanaclark.com 0 No Rank 2011-09-27 19:05:48
2845139 svanevej25.dk 0 No Rank 2011-09-27 19:05:54
2845140 svenljunga.se 0 5779236 2011-09-27 19:06:00
2845141 guang8.net 0 10052458 2011-09-27 19:06:00
2845142 suzukiganka.info 0 No Rank 2011-09-27 19:06:01
2845143 croscillbedding.buyqm.com 0 1623657 2011-09-27 19:06:06
2845144 suzee666.com 0 No Rank 2011-09-27 19:06:12
2845145 suzu-kake.jp 0 No Rank 2011-09-27 19:06:13
2845146 suzanneleenen.com 0 No Rank 2011-09-27 19:06:18
2845147 suzannecdesigns.com 0 No Rank 2011-09-27 19:06:20
2845148 icmn.cz 0 2836362 2011-09-27 19:06:24
2845149 suttersframeandartgallery.com 0 No Rank 2011-09-27 19:06:25
2845150 sushigallery.net 0 13889924 2011-09-27 19:06:28
2845151 susbienesecuador.com 0 No Rank 2011-09-27 19:06:36
2845152 susanschwartzphd.com 0 No Rank 2011-09-27 19:06:38
2845153 susannerahn.com 0 No Rank 2011-09-27 19:06:46
2845154 buycheapbupropion.com 0 No Rank 2011-09-27 19:06:47
2845155 zsfd.cn 0 No Rank 2011-09-27 19:06:47
2845156 susanneguldager.dk 0 No Rank 2011-09-27 19:06:52
2845157 surplusbearings.com 0 No Rank 2011-09-27 19:06:52
2845158 blogs.sjsu.edu 0 24114 2011-09-27 19:06:54
2845159 surplus-r-us.com 0 No Rank 2011-09-27 19:06:59
2845160 puruisitong.crxx.net 0 6228353 2011-09-27 19:07:11
2845161 surfanonymouslyonline.com 0 No Rank 2011-09-27 19:07:11
2845162 rsak.de 0 13250894 2011-09-27 19:07:14
2845163 suretouchmassage.com 0 19907390 2011-09-27 19:07:18
2845164 tomgodsal.net 0 No Rank 2011-09-27 19:07:24
2845165 suqatikitur.com 0 No Rank 2011-09-27 19:07:27
2845166 superiorsleeve.com 0 No Rank 2011-09-27 19:07:33
2845167 superiorpho.com 0 19989139 2011-09-27 19:07:37
2845168 superbellezas.com 0 11492065 2011-09-27 19:07:42
2845169 sunvision.com.sg 0 No Rank 2011-09-27 19:07:45
2845170 sunvalleyremedies.com 0 No Rank 2011-09-27 19:07:50
2845171 sunshinecoastaustralia.net 0 No Rank 2011-09-27 19:07:52
2845172 sunrisehomesinc.com 0 No Rank 2011-09-27 19:07:58
2845173 okaj.ch 0 14896306 2011-09-27 19:08:00
2845174 sundialpoolservice.com 0 No Rank 2011-09-27 19:08:04
2845175 sunnexfamily.com 0 No Rank 2011-09-27 19:08:05
2845176 sunbeltcontractorsllc.com 0 No Rank 2011-09-27 19:08:10
2845177 sumofallnumbers.com 0 9805049 2011-09-27 19:08:16
2845178 sunbeltbmwcca.org 0 No Rank 2011-09-27 19:08:18
2845179 summitretailsolutions.com 0 16664995 2011-09-27 19:08:23
2845180 sumafcu.org 0 10623101 2011-09-27 19:08:28
2845181 openatelierroute2011.wordpress.com 0 No Rank 2011-09-27 19:08:34
2845182 summerhavenrvresort.com 0 No Rank 2011-09-27 19:08:36
2845183 fata.dk 0 4834958 2011-09-27 19:08:37
2845184 sudomo-gis.com 0 No Rank 2011-09-27 19:08:41
2845185 sudandailynews.net 0 1637036 2011-09-27 19:08:46
2845186 sudanhome.no 0 99409 2011-09-27 19:08:47
2845187 successionequitypartners.com 0 No Rank 2011-09-27 19:08:53
2845188 submitapaper.com 0 No Rank 2011-09-27 19:08:57
2845189 cat4.energy.lowicz.pl 0 302320 2011-09-27 19:08:57
2845190 library.ccsu.edu 0 106373 2011-09-27 19:08:58
2845191 sdp.net 0 No Rank 2011-09-27 19:08:59
2845192 submissionsinc.com 0 3342919 2011-09-27 19:09:01
2845193 submarine.hu 0 16833245 2011-09-27 19:09:05
2845194 subic.com 0 1635165 2011-09-27 19:09:06
2845195 wls.org 0 24062219 2011-09-27 19:09:12
2845196 landscape-lighting-westchester.com 0 No Rank 2011-09-27 19:09:15
2845197 styrene.org 0 12122756 2011-09-27 19:09:17
2845198 stylesandscribbles.com 0 4433813 2011-09-27 19:09:22
2845199 studycram.com 0 1480662 2011-09-27 19:09:36
2845200 montgomeryhumane.com 0 6513635 2011-09-27 19:09:39
2845201 studio1223.com 0 No Rank 2011-09-27 19:09:41
2845202 agv.cc 0 No Rank 2011-09-27 19:09:46
2845203 strzalowo.eu 0 4978141 2011-09-27 19:09:49
2845204 music.yale.edu 0 5043 2011-09-27 19:09:56
2845205 stroy-build.ru 0 No Rank 2011-09-27 19:09:57
2845206 stspeterandpaul.com 0 20728325 2011-09-27 19:09:59
2845207 ezla.lv 0 19501189 2011-09-27 19:10:01
2845208 stropdas-strikken.com 0 6851384 2011-09-27 19:10:06
2845209 strongforsubaru.com 0 15230290 2011-09-27 19:10:07
2845210 stripclubhost.com 0 No Rank 2011-09-27 19:10:12
2845211 stripclubconsulting.com 0 11527150 2011-09-27 19:10:16
2845212 moysetton.com.ar 0 No Rank 2011-09-27 19:10:19
2845213 stressmanagementtips.com 0 2407222 2011-09-27 19:10:21
2845214 strategiegames.nl 0 13445166 2011-09-27 19:10:28
2845215 stpatricksns.ie 0 6239341 2011-09-27 19:10:29
2845216 stoxer.com 0 No Rank 2011-09-27 19:10:34
2845217 orim.ru 0 6904475 2011-09-27 19:10:36
2845218 storeguide.info 0 7509365 2011-09-27 19:10:44
2845219 stopthepettersscam.com 0 No Rank 2011-09-27 19:10:49
2845220 stoptheftnow.com 0 20904596 2011-09-27 19:10:52
2845221 lock-load.com 0 15478052 2011-09-27 19:10:55
2845222 9ll.org 0 3904912 2011-09-27 19:10:57
2845223 stop-age.hu 0 24837421 2011-09-27 19:10:58
2845224 stonewalljack.com 0 No Rank 2011-09-27 19:10:58
2845225 stonechurch.org 0 No Rank 2011-09-27 19:11:05
2845226 stoneandgarden.com 0 No Rank 2011-09-27 19:11:06
2845227 stone.net.pl 0 11655472 2011-09-27 19:11:15
2845228 stoma.projektas.lt 0 367901 2011-09-27 19:11:17
2845229 stolzbergassociates.com 0 No Rank 2011-09-27 19:11:20
2845230 stollet.com 0 24108008 2011-09-27 19:11:29
2845231 stolbikanet.ucoz.ua 0 182 2011-09-27 19:11:30
2845232 stoevsugerposen.dk 0 1937867 2011-09-27 19:11:39
2845233 stoart.fm.interia.pl 0 708 2011-09-27 19:11:39
2845234 2569.cn 0 3143352 2011-09-27 19:11:40
2845235 stmartinpowerboatsaz.com 0 16981474 2011-09-27 19:11:46
2845236 stmarkbrunswick.org 0 No Rank 2011-09-27 19:11:51
2845237 stjre.com 0 14093609 2011-09-27 19:11:55
2845238 stjosephlab.com 0 14076350 2011-09-27 19:11:56
2845239 liblog.mayo.edu 0 71791 2011-09-27 19:11:59
2845240 stjameshotel.net 0 No Rank 2011-09-27 19:12:02
2845241 stjohnchurch-ennis.org 0 No Rank 2011-09-27 19:12:02
2845242 howtomakeyourvoicedeeperexercises.blogspot.com 0 No Rank 2011-09-27 19:12:08
2845243 p1x.org 0 No Rank 2011-09-27 19:12:11
2845244 stickcaddy.com 0 No Rank 2011-09-27 19:12:12
2845245 stilex-sklep.pl 0 No Rank 2011-09-27 19:12:13
2845246 sthelenscon.com 0 No Rank 2011-09-27 19:12:18
2845247 heikkisaari.pp.fi 0 185619 2011-09-27 19:12:19
2845248 stevessizzlingsteaks.com 0 7359289 2011-09-27 19:12:20
2845249 miru.jp 0 No Rank 2011-09-27 19:12:22
2845250 stevensonkiajax.com 0 No Rank 2011-09-27 19:12:24
2845251 carolinabehavioralcare.com 0 10345032 2011-09-27 19:12:26
2845252 stevensonkia.com 0 No Rank 2011-09-27 19:12:26
2845253 stevebarkertraining.com 0 No Rank 2011-09-27 19:12:30
2845254 yundong7.com 0 13364378 2011-09-27 19:12:30
2845255 stern-galerie.com 0 No Rank 2011-09-27 19:12:36
2845256 sterlingstyleacademy.com 0 875448 2011-09-27 19:12:37
2845257 stephenwallem.com 0 8696919 2011-09-27 19:12:44
2845258 stereomir3d.ru 0 1360680 2011-09-27 19:12:46
2845259 pdos.be 0 8927839 2011-09-27 19:12:46
2845260 teachingchildren.net 0 No Rank 2011-09-27 19:12:47
2845261 stephaniedance.com 0 No Rank 2011-09-27 19:12:50
2845262 stellafranceswebdesign.info 0 No Rank 2011-09-27 19:12:52
2845263 steklovolokno-ural.ru 0 17710067 2011-09-27 19:12:56
2845264 tang.fm 0 13106476 2011-09-27 19:13:00
2845265 stefandevriesmakelaar.nl 0 19536736 2011-09-27 19:13:05
2845266 steenkristiansen.dk 0 No Rank 2011-09-27 19:13:06
2845267 steenbuilders.com 0 No Rank 2011-09-27 19:13:11
2845268 steeleaviation.com 0 No Rank 2011-09-27 19:13:11
2845269 mist.ist.psu.edu 0 2961 2011-09-27 19:13:17
2845270 steatyt.com 0 No Rank 2011-09-27 19:13:18
2845271 steadysteele.net 0 No Rank 2011-09-27 19:13:18
2845272 lenceriamonique.com.ar 0 4496994 2011-09-27 19:13:22
2845273 stbscout.se 0 No Rank 2011-09-27 19:13:28
2845274 stayhardinfo.com 0 19818772 2011-09-27 19:13:28
2845275 blogs.ou.edu 0 18911 2011-09-27 19:13:33
2845276 statexpress.com 0 No Rank 2011-09-27 19:13:34
2845277 glazerrealty.com 0 17789293 2011-09-27 19:13:39
2845278 starrgoodmanlaw.com 0 No Rank 2011-09-27 19:13:41
2845279 gesc.ru 0 4359170 2011-09-27 19:13:51
2845280 starmanet.com 0 No Rank 2011-09-27 19:13:51
2845281 starfishoils.com 0 7559909 2011-09-27 19:14:00
2845282 tuft.us 0 5804232 2011-09-27 19:14:04
2845283 starstatuspublishing.com 0 8519929 2011-09-27 19:14:07
2845284 srdc.hk 0 22237391 2011-09-27 19:14:18
2845285 staretarnowice.pl 0 No Rank 2011-09-27 19:14:39
2845286 stansroofingandsiding.com 0 11841080 2011-09-27 19:14:44
2845287 stanpros.com 0 No Rank 2011-09-27 19:14:48
2845288 stammtischgrenoble.free.fr 0 208 2011-09-27 19:14:54
2845289 stallakeway.nl 0 No Rank 2011-09-27 19:14:55
2845290 angrybirdsonlines.com 0 No Rank 2011-09-27 19:14:57
2845291 stairliftct.com 0 No Rank 2011-09-27 19:15:00
2845292 stainingspecialists.com 0 No Rank 2011-09-27 19:15:01
2845293 stageunivi.it 0 No Rank 2011-09-27 19:15:13
2845294 stagetoperfection.com 0 No Rank 2011-09-27 19:15:15
2845295 audi.az 0 825342 2011-09-27 19:15:17
2845296 staeuble-tancredi.ch 0 No Rank 2011-09-27 19:15:19
2845297 stacy-london.com 0 27815109 2011-09-27 19:15:22
2845298 ssturdevantphotography.com 0 No Rank 2011-09-27 19:15:28
2845299 blogs.web.jomc.unc.edu 0 6360 2011-09-27 19:15:39
2845300 sspr.cn 0 8696302 2011-09-27 19:15:41
2845301 sskblog.org 0 17382879 2011-09-27 19:15:47
2845302 agen-jellygamat.com 0 1703833 2011-09-27 19:15:54
2845303 sshk.net 0 No Rank 2011-09-27 19:15:55
2845304 ss-qc.com 0 18463449 2011-09-27 19:15:57
2845305 cupid-on.tk 0 No Rank 2011-09-27 19:16:02
2845306 srpfl.com 0 No Rank 2011-09-27 19:16:03
2845307 srub.tv 0 No Rank 2011-09-27 19:16:05
2845308 srivenkateswaramotors.com 0 No Rank 2011-09-27 19:16:10
2845309 srkkdc.com 0 No Rank 2011-09-27 19:16:12
2845310 sriolimagroup.com 0 No Rank 2011-09-27 19:16:17
2845311 srimanjunathaindustries.com 0 No Rank 2011-09-27 19:16:18
2845312 srgnet.com 0 2892721 2011-09-27 19:16:29
2845313 srcsurinplaza.com 0 5607653 2011-09-27 19:16:30
2845314 sr29.com 0 No Rank 2011-09-27 19:16:36
2845315 squarepins.org 0 20388568 2011-09-27 19:16:40
2845316 squareonegaming.com 0 No Rank 2011-09-27 19:16:46
2845317 sptfzc.com 0 No Rank 2011-09-27 19:16:55
2845318 springfieldvadental.com 0 No Rank 2011-09-27 19:17:03
2845319 epdm.fr 0 No Rank 2011-09-27 19:17:12
2845320 sprezarka.com 0 No Rank 2011-09-27 19:17:13
2845321 jiuyunwuliu.b2b.youboy.com 0 701 2011-09-27 19:17:16
2845322 spreadink.com 0 No Rank 2011-09-27 19:17:18
2845323 spraytansatlanta.info 0 No Rank 2011-09-27 19:17:23
2845324 spraytancubicle.net 0 No Rank 2011-09-27 19:17:32
2845325 peca.hu 0 185981 2011-09-27 19:17:34
2845326 spottedmountainhorses.com 0 No Rank 2011-09-27 19:17:38
2845327 attorneyinmanhattanbeachca.com 0 No Rank 2011-09-27 19:17:41
2845328 spotlesscleaningchicago.com 0 3151249 2011-09-27 19:17:44
2845329 springhillbc.org 0 No Rank 2011-09-27 19:17:48
2845330 sportssky.info 0 4770208 2011-09-27 19:17:51
2845331 sportsmencampground.com 0 No Rank 2011-09-27 19:17:55
2845332 86pj.cn 0 3735636 2011-09-27 19:17:58
2845333 sportsimo.com.pl 0 No Rank 2011-09-27 19:18:00
2845334 sports-tcg.net 0 No Rank 2011-09-27 19:18:04
2845335 52tq.cn 0 15283832 2011-09-27 19:18:13
2845336 spokanedowntownkiwanis.org 0 No Rank 2011-09-27 19:18:13
2845337 sportandeu.com 0 No Rank 2011-09-27 19:18:16
2845338 spitfiremarketinggroup.com 0 No Rank 2011-09-27 19:18:28
2845339 spkurow.pl 0 No Rank 2011-09-27 19:18:32
2845340 simplymoneyclicks.blogspot.com 0 No Rank 2011-09-27 19:18:34
2845341 spitex-chur.ch 0 No Rank 2011-09-27 19:18:35
2845342 ajax.ge 0 9117417 2011-09-27 19:18:40
2845343 klasikwisata.blogspot.com 0 No Rank 2011-09-27 19:18:41
2845344 spiski-v-zags.ru 0 3120933 2011-09-27 19:18:42
2845345 spiewnikreligijny.za.pl 0 50321 2011-09-27 19:18:43
2845346 spfgoodlifeopen.se 0 No Rank 2011-09-27 19:18:49
2845347 spichers.com 0 7461533 2011-09-27 19:18:50
2845348 spencerreidfoundation.org 0 No Rank 2011-09-27 19:18:59
2845349 speed96-bg.com 0 5800561 2011-09-27 19:19:04
2845350 srdi.hk 0 No Rank 2011-09-27 19:19:13
2845351 specialoccasionsandiego.com 0 No Rank 2011-09-27 19:19:14
2845352 specialdiet.ca 0 No Rank 2011-09-27 19:19:20
2845353 specialsinvail.com 0 No Rank 2011-09-27 19:19:23
2845354 specelite.com 0 No Rank 2011-09-27 19:19:33
2845355 spdmarketing.com.my 0 6357212 2011-09-27 19:19:34
2845356 nwib.be 0 1978786 2011-09-27 19:19:35
2845357 spd-otterstadt.de 0 No Rank 2011-09-27 19:19:40
2845358 spcarbon.com 0 5401134 2011-09-27 19:19:40
2845359 spauldingmfg.com 0 No Rank 2011-09-27 19:19:49
2845360 sn1t.com 0 No Rank 2011-09-27 19:19:51
2845361 windowsregistryrepair.net 0 No Rank 2011-09-27 19:19:55
2845362 spazio6.com 0 No Rank 2011-09-27 19:19:56
2845363 spassbrems.de 0 No Rank 2011-09-27 19:19:56
2845364 spartanburgsurgery.com 0 12330818 2011-09-27 19:20:02
2845365 sparoommassage.com 0 6172798 2011-09-27 19:20:03
2845366 spanglerfamilydental.com 0 No Rank 2011-09-27 19:20:15
2845367 alexestore.com 0 No Rank 2011-09-27 19:20:16
2845368 soyouthinkyourecool.com 0 13118240 2011-09-27 19:20:16
2845369 cookingspot.org 0 3418166 2011-09-27 19:20:23
2845370 southerntxshorinkan.com 0 22284815 2011-09-27 19:20:25
2845371 southforkcampground.com 0 18608427 2011-09-27 19:20:27
2845372 m8mk.com 0 13595983 2011-12-03 23:30:47
2845373 southernpremier.co.za 0 No Rank 2011-09-27 19:20:32
2845374 southernhomeservices.biz 0 17764576 2011-09-27 19:20:33
2845375 gjxuelwp.com 0 No Rank 2011-09-27 19:20:33
2845376 southernharmonychorus.com 0 No Rank 2011-09-27 19:20:39
2845377 southcountymail.com 0 10650795 2011-09-27 19:20:42
2845378 southag.com 0 5061559 2011-09-27 19:20:45
2845379 south-run.com 0 No Rank 2011-09-27 19:20:46
2845380 sourcepetro.com 0 17011444 2011-09-27 19:20:53
2845381 soundof.com 0 No Rank 2011-09-27 19:20:54
2845382 soundcreation.ca 0 No Rank 2011-09-27 19:20:58
2845383 soundbeachfd.org 0 14905444 2011-09-27 19:20:59
2845384 sound-travelz.com 0 No Rank 2011-09-27 19:21:03
2845385 sosdomesticviolence.com 0 19429572 2011-09-27 19:21:05
2845386 levis-outlet.com 0 3911991 2011-09-27 19:21:12
2845387 soric.com 0 No Rank 2011-09-27 19:21:14
2845388 sortiespourtous.com 0 No Rank 2011-09-27 19:21:14
2845389 sorgen-telefon.info 0 10090174 2011-09-27 19:21:21
2845390 sofisci.pl 0 No Rank 2011-09-27 19:21:22
2845391 sored-sa.com 0 No Rank 2011-09-27 19:21:23
2845392 soragoto.net 0 122413 2011-09-27 19:21:28
2845393 arthpractice.com 0 No Rank 2011-09-27 19:21:30
2845394 mightylib.zkoran.com 0 18394544 2011-09-27 19:21:30
2845395 3344001.com 0 4333700 2011-09-27 19:21:31
2845396 sooterkin.com 0 18925378 2011-09-27 19:21:34
2845397 sookfong.com 0 18106506 2011-09-27 19:21:38
2845398 artifacts-iowacity.com 0 17462278 2011-09-27 19:21:40
2845399 sonydigitalcamerasandpictures.com 0 No Rank 2011-09-27 19:21:42
2845400 picclip4u.com 0 6478909 2011-09-27 19:21:46
2845401 artini-cottages.com 0 7329823 2011-09-27 19:21:51
2845402 sonnmusic.com 0 No Rank 2011-09-27 19:21:51
2845403 sonymusicaudition.com 0 7721466 2011-09-27 19:21:54
2845404 sonnetserver.com 0 No Rank 2011-09-27 19:21:58
2845405 mchamim.proflight.hop.clickbank.net 0 784 2011-11-29 19:03:18
2845406 sonicnetworks.co.za 0 19614130 2011-09-27 19:22:09
2845407 chuck-testa.blogspot.com 0 No Rank 2011-09-27 19:22:09
2845408 songsiwishidwritten.com 0 No Rank 2011-09-27 19:22:17
2845409 artinoxburgos.com 0 No Rank 2011-09-27 19:22:21
2845410 sommerhusudlejning-holland.novasol.dk 0 286991 2011-09-27 19:22:24
2845411 somethingblueforyou.com 0 No Rank 2011-09-27 19:22:31
2845412 mcyp.net 0 20303338 2011-09-27 19:22:34
2845413 somanta.net 0 No Rank 2011-09-27 19:22:50
2845414 artisan-stair.com 0 No Rank 2011-09-27 19:22:51
2845415 artisansmonthly.com 0 No Rank 2011-09-27 19:22:57
2845416 somalilandtec.com 0 7338267 2011-09-27 19:22:58
2845417 somejamesons.com 0 No Rank 2011-09-27 19:23:07
2845418 solvaynordic.com 0 No Rank 2011-09-27 19:23:09
2845419 artisanafoods.com 0 1227973 2011-09-27 19:23:11
2845420 hongjie.cc 0 10951816 2011-09-27 19:23:15
2845421 solvauction.com 0 24107260 2011-09-27 19:23:16
2845422 solnave.pt 0 6290592 2011-09-27 19:23:20
2845423 blogs.messiah.edu 0 195802 2011-09-27 19:23:21
2845424 artisanicesculptures.com 0 No Rank 2011-09-27 19:23:24
2845425 soldemexicochicago.com 0 11343918 2011-09-27 19:23:25
2845426 solhorse.ru 0 No Rank 2011-09-27 19:23:28
2845427 solarnetix.com 0 6076186 2011-09-27 19:23:31
2845428 mirror-mirrors.com 0 2726906 2011-09-27 19:23:36
2845429 artisansurfdesigns.blogspot.com 0 18289380 2011-09-27 19:23:36
2845430 solarbrunnen.proskating.at 0 No Rank 2011-09-27 19:23:36
2845431 ikshufbee.adsfree.ru 0 No Rank 2011-09-27 19:23:41
2845432 campgamesforacause.kintera.org 0 12333 2011-09-27 19:23:45
2845433 supremedestiny.youtele.com 0 85718 2011-09-27 19:23:46
2845434 softhand.net 0 No Rank 2011-09-27 19:23:50
2845435 softwarepulsaindonesia.com 0 2629314 2011-09-27 19:23:51
2845436 sofort-job.com 0 No Rank 2011-09-27 19:23:59
2845437 campingpinparasol.fr 0 7354801 2011-09-27 19:24:02
2845438 charlottecrossing.com 0 9841696 2011-09-27 19:24:09
2845439 socobois.fr 0 6393029 2011-09-27 19:24:09
2845440 camping-belleroche.com 0 13042265 2011-09-27 19:24:18
2845441 socialmixi.com 0 No Rank 2011-09-27 19:24:21
2845442 canalaztel.foroactivo.net 0 7945 2011-09-27 19:24:26
2845443 soccerkicks.biz 0 7126582 2011-09-27 19:24:31
2845444 cancerevents.kintera.org 0 12333 2011-09-27 19:24:35
2845445 sobrietytoday.com 0 No Rank 2011-09-27 19:24:37
2845446 so-loft.com 0 15304385 2011-09-27 19:24:46
2845447 campingrelax.com 0 No Rank 2011-09-27 19:24:48
2845448 snowpatrol.nl 0 No Rank 2011-09-27 19:24:52
2845449 candice-massage.com 0 9004218 2011-09-27 19:24:58
2845450 snowpistols.lv 0 No Rank 2011-09-27 19:24:58
2845451 snowcountrysports.com 0 22476792 2011-09-27 19:24:59
2845452 snoopersparadise.com 0 No Rank 2011-09-27 19:25:04
2845453 snappy-pappys.com 0 6169055 2011-09-27 19:25:12
2845454 snajper5.fm.interia.pl 0 708 2011-09-27 19:25:13
2845455 cannes-ilesdelerins.com 0 2405683 2011-09-27 19:25:15
2845456 smtar.com 0 No Rank 2011-09-27 19:25:16
2845457 canvasbagstation.com 0 8117573 2011-09-27 19:25:22
2845458 sms-group.net 0 19091410 2011-09-27 19:25:22
2845459 smsphotographyblog.com 0 16340566 2011-09-27 19:25:22
2845460 capecodbythesea.homestead.com 0 No Rank 2011-09-27 19:25:30
2845461 smolpc.ru 0 No Rank 2011-09-27 19:25:32
2845462 smokevapour.com 0 No Rank 2011-09-27 19:25:32
2845463 capemploi07.com 0 No Rank 2011-09-27 19:25:41
2845464 smksyp1.com 0 18727722 2011-09-27 19:25:41
2845465 smoerholm.no 0 7264642 2011-09-27 19:25:41
2845466 williamscompany.net 0 7690001 2011-09-27 19:25:47
2845467 smitss.nl 0 No Rank 2011-09-27 19:25:49
2845468 smithsknitshop.com 0 20421685 2011-09-27 19:25:50
2845469 smithandmederosrealty.com 0 No Rank 2011-09-27 19:25:55
2845470 capitalareaheartwalk.kintera.org 0 12333 2011-09-27 19:26:04
2845471 smdepannage.free.fr 0 208 2011-09-27 19:26:06
2845472 smegfridges.org 0 27362125 2011-09-27 19:26:06
2845473 smc-moscow.com 0 No Rank 2011-09-27 19:26:13
2845474 smartmediasyndicate.com 0 8217980 2011-09-27 19:26:15
2845475 fiverrsgig.wordpress.com 0 No Rank 2011-09-27 19:26:15
2845476 capitalonedcpinfo.com 0 No Rank 2011-09-27 19:26:17
2845477 smartbusinesslink.com 0 No Rank 2011-09-27 19:26:23
2845478 smarteryoga.com 0 15620014 2011-09-27 19:26:24
2845479 love.cn 0 2272133 2011-09-27 19:26:24
2845480 cardinalsales.homestead.com 0 9593773 2011-09-27 19:26:29
2845481 smalltowndoc.com 0 No Rank 2011-09-27 19:26:30
2845482 small-lane.com 0 No Rank 2011-09-27 19:26:30
2845483 cardscan.net.au 0 16425331 2011-09-27 19:26:36
2845484 intechtalk.blogspot.com 0 7682395 2011-09-27 19:26:36
2845485 slohealthandfitness.com 0 No Rank 2011-09-27 19:26:41
2845486 spb.heartserguryintelaviv.wordpress.com 0 No Rank 2011-09-27 19:26:42
2845487 johnjay-landscaping.com 0 6773533 2011-09-27 19:26:43
2845488 slodowy.com 0 No Rank 2011-09-27 19:26:46
2845489 slonce-juz-zaszlo.mylog.pl 0 370334 2011-09-27 19:26:50
2845490 slidecompany.com 0 14542242 2011-09-27 19:26:54
2845491 care42010.kintera.org 0 12333 2011-09-27 19:26:56
2845492 sliceofbroadway.com 0 10504279 2011-09-27 19:27:00
2845493 spb.heartserguryinisrael.wordpress.com 0 No Rank 2011-09-27 19:27:03
2845494 sleus.ru 0 9466231 2011-09-27 19:27:03
2845495 sleep-apnea-machine.com 0 No Rank 2011-09-27 19:27:08
2845496 careergroomer.com 0 5010590 2011-09-27 19:27:14
2845497 skywayconnectionchorus.com 0 No Rank 2011-09-27 19:27:14
2845498 skyvision-tech.com 0 12422475 2011-09-27 19:27:16
2845499 skyranchflyers.com 0 23643130 2011-09-27 19:27:20
2845500 skynetplaza.com 0 No Rank 2011-09-27 19:27:26
2845501 carleeandcharlie.homestead.com 0 No Rank 2011-09-27 19:27:26
2845502 skyline-waterproofing.com 0 No Rank 2011-09-27 19:27:27
2845503 skylightsnw.com 0 No Rank 2011-09-27 19:27:35
2845504 skybend.com 0 1445878 2011-09-27 19:27:38
2845505 skutrypraha.cz 0 14838492 2011-09-27 19:27:44
2845506 skunkrivercycles.com 0 No Rank 2011-09-27 19:27:48
2845507 skirrowdecks.com 0 No Rank 2011-09-27 19:27:52
2845508 skiparkasbymontanos.com 0 No Rank 2011-09-27 19:27:55
2845509 iwatchesformen.com 0 No Rank 2011-09-27 19:27:55
2845510 skinsin.com 0 No Rank 2011-09-27 19:27:59
2845511 skinnyjeanssolution.com 0 10052964 2011-09-27 19:28:03
2845512 gz.cqbrhy.com 0 No Rank 2011-09-27 19:28:04
2845513 skiexcel.com 0 5347626 2011-09-27 19:28:12
2845514 skg-ogulin.hr 0 No Rank 2011-09-27 19:28:19
2845515 skg.cz 0 No Rank 2011-09-27 19:28:20
2845516 skagwaybrewing.com 0 10194704 2011-09-27 19:28:25
2845517 sketch-art.com 0 No Rank 2011-09-27 19:28:26
2845518 firewoodmanchester.info 0 No Rank 2011-09-27 19:28:30
2845519 sk8info.com 0 17883032 2011-09-27 19:28:32
2845520 skagenbest-house.dk 0 No Rank 2011-09-27 19:28:33
2845521 sjdccf.com 0 No Rank 2011-09-27 19:28:42
2845522 firewoodcheshire.info 0 No Rank 2011-09-27 19:28:46
2845523 six75.com 0 12282680 2011-09-27 19:28:47
2845524 six-pack-abs.org 0 No Rank 2011-09-27 19:28:49
2845525 sitterpants.com 0 19255245 2011-09-27 19:28:53
2845526 sitkachamber.com 0 10487629 2011-09-27 19:28:54
2845527 sitara.se 0 No Rank 2011-09-27 19:29:00
2845528 6-test.com 0 6351835 2011-09-27 19:29:00
2845529 sistassalonandspa.com 0 14583299 2011-09-27 19:29:01
2845530 swmw.ca 0 No Rank 2011-09-27 19:29:01
2845531 primehomeimprovement.com 0 6881995 2011-09-27 19:29:06
2845532 sirwinston.se 0 No Rank 2011-09-27 19:29:07
2845533 sirketfirmarehberi.com 0 1755170 2011-09-27 19:29:08
2845534 sirius.com.tr 0 2905778 2011-09-27 19:29:14
2845535 sipsinc.com 0 No Rank 2011-09-27 19:29:18
2845536 siplacerville.com 0 No Rank 2011-09-27 19:29:20
2845537 xjbs.cn 0 No Rank 2011-09-27 19:29:21
2845538 siouxfallscasa.com 0 11548100 2011-09-27 19:29:24
2845539 sionsoft.com 0 5234491 2011-09-27 19:29:29
2845540 siostrysluzebniczki.pl 0 No Rank 2011-09-27 19:29:30
2845541 amateurhoeren925.sexdating2.info 0 No Rank 2011-09-27 19:29:32
2845542 sum2.de 0 14597718 2011-09-27 19:29:37
2845543 simula.be 0 No Rank 2011-09-27 19:29:40
2845544 simtrans.ru 0 6172570 2011-09-27 19:29:40
2845545 smallbusinesscourse.org 0 24767599 2011-09-27 19:29:42
2845546 simplythebestproductions.com 0 No Rank 2011-09-27 19:29:47
2845547 sims2.at.ua 0 182 2011-09-27 19:29:48
2845548 5ud.net 0 1022587 2011-09-27 19:29:48
2845549 mbtclassic.com 0 No Rank 2011-09-27 19:29:50
2845550 simplybridal.com 0 822677 2011-09-27 19:29:54
2845551 simplysacred.com 0 17954316 2011-09-27 19:29:54
2845552 simonwooddash.com 0 5731025 2011-09-27 19:30:00
2845553 simpltry.com 0 6621824 2011-09-27 19:30:00
2845554 zondercondoom7007.sexdates1.info 0 No Rank 2011-09-27 19:30:01
2845555 jitec.fr 0 24291940 2011-09-27 19:30:06
2845556 simm1india.com 0 No Rank 2011-09-27 19:30:10
2845557 simeongoulden.com 0 No Rank 2011-09-27 19:30:15
2845558 simefuneralhome.com 0 No Rank 2011-09-27 19:30:16
2845559 hedgemom.net 0 No Rank 2011-09-27 19:30:17
2845560 silvioandrade.com.br 0 No Rank 2011-09-27 19:30:22
2845561 silviaparga.com 0 No Rank 2011-09-27 19:30:24
2845562 silvertowndevelopment.com 0 No Rank 2011-09-27 19:30:27
2845563 grotelullen4899.sexdates1.info 0 No Rank 2011-09-27 19:30:30
2845564 coeliac2.blogspot.com 0 No Rank 2011-09-27 19:30:30
2845565 silversandscapecod.com 0 No Rank 2011-09-27 19:30:31
2845566 siljagoetz.com 0 4701044 2011-09-27 19:30:46
2845567 sikhschoolofla.com 0 No Rank 2011-09-27 19:30:49
2845568 sikhcouncilusa.org 0 No Rank 2011-09-27 19:30:56
2845569 520y.com 0 15427262 2011-09-27 19:30:58
2845570 signaturehealthcare.org 0 22120394 2011-09-27 19:31:01
2845571 sigtechgrp.com 0 20421347 2011-09-27 19:31:05
2845572 localbend.com 0 2371952 2011-09-27 19:31:08
2845573 signaturechefsnnv.com 0 No Rank 2011-09-27 19:31:11
2845574 sigmatradinggroup.com 0 24637208 2011-09-27 19:31:20
2845575 toolsforenglish.com 0 2776988 2011-09-27 19:31:23
2845576 signatureconcoctions.com 0 5401979 2011-09-27 19:31:25
2845577 sigmasixinc.com 0 20856140 2011-09-27 19:31:34
2845578 sierraradio.net 0 No Rank 2011-09-27 19:31:37
2845579 sierrahakuba.com 0 No Rank 2011-09-27 19:31:42
2845580 m-bus.jp 0 No Rank 2011-09-27 19:31:51
2845581 sidarthaenterprise.com 0 No Rank 2011-09-27 19:31:51
2845582 sicilianbedandbreakfast.com 0 No Rank 2011-09-27 19:31:57
2845583 wheretogetafricanmango.info 0 No Rank 2011-09-27 19:32:02
2845584 webmail.mtsbiz.net 0 7937209 2011-09-27 19:32:02
2845585 papapost.com 0 24784023 2011-09-27 19:32:03
2845586 siauliusodybos.puslapiai.lt 0 95739 2011-09-27 19:32:09
2845587 sib.zig.lv 0 174086 2011-09-27 19:32:09
2845588 siameser.dk 0 No Rank 2011-09-27 19:32:15
2845589 shreveportbossierfunguide.com 0 1996575 2011-09-27 19:32:19
2845590 shynessbook.com 0 13381239 2011-09-27 19:32:20
2845591 forexx.ca 0 No Rank 2011-09-27 19:32:22
2845592 shradhahomes.com 0 22182942 2011-09-27 19:32:24
2845593 shoun.net 0 No Rank 2011-09-27 19:32:32
2845594 shottons.com 0 No Rank 2011-09-27 19:32:33
2845595 ilwug.com 0 14250864 2011-09-27 19:32:33
2845596 shoshonecountyhousing.com 0 No Rank 2011-09-27 19:32:37
2845597 shortformblog.com 0 2427276 2011-09-27 19:32:45
2845598 shorinryukaratedo.com 0 15331365 2011-09-27 19:32:45
2845599 shopusashipinternational.com 0 4119645 2011-09-27 19:32:52
2845600 zemt.info 0 No Rank 2011-09-27 19:32:57
2845601 shopgijoecostumes.com 0 14449502 2011-09-27 19:33:00
2845602 shop.carlstaddepa.se 0 16164389 2011-09-27 19:33:02
2845603 shirleycase.com 0 No Rank 2011-09-27 19:33:08
2845604 shipfineart.com 0 13891976 2011-09-27 19:33:14
2845605 shintaroteraoka.com 0 No Rank 2011-09-27 19:33:15
2845606 shinsenichiba.biz 0 No Rank 2011-09-27 19:33:21
2845607 appliancestips0k.wordpress.com 0 No Rank 2011-09-27 19:33:25
2845608 ap8am.com 0 14438785 2011-09-27 19:33:27
2845609 shineandshield.com 0 No Rank 2011-09-27 19:33:28
2845610 shimoame.com 0 1696098 2011-09-27 19:33:32
2845611 djumc.org 0 No Rank 2011-09-27 19:33:40
2845612 shiftup.com 0 25032182 2011-09-27 19:33:41
2845613 shilohnationalmilitarypark.com 0 No Rank 2011-09-27 19:33:44
2845614 shcekcemaldogan.gov.tr 0 17883303 2011-09-27 19:33:52
2845615 sherrin.com 0 3549614 2011-09-27 19:33:53
2845616 shca.info 0 15066410 2011-09-27 19:33:58
2845617 babyproductsonline.us 0 5687919 2011-09-27 19:34:02
2845618 sharp3d.net 0 No Rank 2011-09-27 19:34:05
2845619 paipai775.com 0 No Rank 2011-09-27 19:34:07
2845620 sharefax.com 0 11583199 2011-09-27 19:34:12
2845621 shantyrents.com 0 16276654 2011-09-27 19:34:24
2845622 kirab.com 0 No Rank 2011-09-27 19:34:25
2845623 shanticonsultants.in 0 5283474 2011-09-27 19:34:29
2845624 shannonmotorsusedcars.com 0 5682896 2011-09-27 19:34:32
2845625 shanedara.com 0 No Rank 2011-09-27 19:34:35
2845626 shalomcleaningservices.org 0 22950881 2011-09-27 19:34:40
2845627 shadynookcottages.ca 0 17653691 2011-09-27 19:34:42
2845628 shadez4.com 0 No Rank 2011-09-27 19:34:48
2845629 sgraffiliatebootcamp.com 0 10626756 2011-09-27 19:34:53
2845630 sgkm.ku.edu.tr 0 146337 2011-09-27 19:34:57
2845631 sgcdungarvan.com 0 No Rank 2011-09-27 19:34:58
2845632 namegirja.blogspot.com 0 No Rank 2011-09-27 19:35:03
2845633 sgcambium.nl 0 No Rank 2011-09-27 19:35:04
2845634 freegamesjunkie.com 0 No Rank 2011-09-27 19:35:08
2845635 sfatulpsihologului.info 0 No Rank 2011-09-27 19:35:13
2845636 almere.com 0 No Rank 2011-09-27 19:35:16
2845637 sfptg.org 0 No Rank 2011-09-27 19:35:28
2845638 tlt.fandm.edu 0 238621 2011-09-27 19:35:32
2845639 casinoswing.com 0 4194627 2011-09-27 19:35:40
2845640 zacharyworkm614436.webs.com 0 No Rank 2011-09-27 19:35:44
2845641 sex-praga-cz.info 0 17143648 2011-09-27 19:35:52
2845642 sevenhabitsconsulting.com 0 8614822 2011-09-27 19:35:54
2845643 bizz-e-books.com 0 2666528 2011-09-27 19:35:55
2845644 setamatsu-karatedo.net 0 No Rank 2011-09-27 19:35:59
2845645 0769bus.cn 0 7511623 2011-09-27 19:36:04
2845646 servispaintball.com 0 7598880 2011-09-27 19:36:09
2845647 programa.com.pt 0 No Rank 2011-09-27 19:36:12
2845648 serviceshi.com 0 No Rank 2011-09-27 19:36:16
2845649 skin-care.dealshopcenter.com 0 No Rank 2011-09-27 19:36:18
2845650 servicecp.com 0 No Rank 2011-09-27 19:36:23
2845651 servicevantage.com 0 3397007 2011-09-27 19:36:28
2845652 server-er.com 0 No Rank 2011-09-27 19:36:29
2845653 xavi.johansson.nu 0 1065127 2011-09-27 19:36:53
2845654 prisvis.se 0 308313 2011-09-27 19:36:58
2845655 clubteam.ru 0 No Rank 2011-09-27 19:37:02
2845656 tarkett.nl 0 495704 2011-09-27 19:37:12
2845657 superstitionreview.asu.edu 0 7207 2011-09-27 19:37:19
2845658 chechfi.ca 0 24121176 2011-09-27 19:37:45
2845659 online-casino-world.com 0 4290622 2011-09-27 19:37:46
2845660 8aion.info 0 No Rank 2011-09-27 19:37:57
2845661 zacharyworkm614.livejournal.com 0 86 2011-09-27 19:38:08
2845662 sentimientozaragocista.com 0 3033397 2011-09-27 19:38:13
2845663 carekc.org 0 No Rank 2011-09-27 19:38:20
2845664 fiona.johansson.nu 0 1065127 2011-09-27 19:38:22
2845665 asianwomenonline.tk 0 6336439 2011-09-27 19:38:45
2845666 ddewey.net 0 3678390 2011-09-27 19:38:54
2845667 adtech.com 0 81776 2011-09-27 19:39:05
2845668 bonusgratuitcasino.com 0 5831100 2011-09-27 19:39:18
2845669 kakvoo.com 0 11665924 2011-09-27 19:39:33
2845670 chreed.net 0 No Rank 2011-09-27 19:39:51
2845671 senscegroup.com 0 No Rank 2011-09-27 19:39:54
2845672 sentimental-dating.com 0 No Rank 2011-09-27 19:40:01
2845673 senoritta.com 0 No Rank 2011-09-27 19:40:02
2845674 senkus.info 0 No Rank 2011-09-27 19:40:10
2845675 ww.aman2.ro 0 2288761 2011-09-27 19:40:10
2845676 seniorpchelp.com 0 No Rank 2011-09-27 19:40:16
2845677 seniorzyzhpsiemianowice.freecast.pl 0 1334822 2011-09-27 19:40:19
2845678 zacharyworkm614.xanga.com 0 2763 2011-09-27 19:40:19
2845679 seniorgamesct.org 0 No Rank 2011-09-27 19:40:21
2845680 m.cancan.ro 0 4483 2011-09-27 19:40:27
2845681 senecac.ca 0 2762441 2011-09-27 19:40:30
2845682 semstem.nl 0 No Rank 2011-09-27 19:40:34
2845683 semi-ken.net 0 4806201 2011-09-27 19:40:38
2845684 semantic.su 0 No Rank 2011-09-27 19:40:42
2845685 selmersmiles.com 0 No Rank 2011-09-27 19:40:44
2845686 lawipad.com 0 No Rank 2011-09-27 19:40:45
2845687 sellybarrpersonaltrainer.com 0 No Rank 2011-09-27 19:40:53
2845688 ftp.ckf.org 0 2031778 2011-09-27 19:40:59
2845689 choricom.jp 0 No Rank 2011-09-27 19:41:07
2845690 sellrecordcollection.com 0 No Rank 2011-09-27 19:41:19
2845691 seiteilderbewegung.de 0 No Rank 2011-09-27 19:41:25
2845692 seiglaw.com 0 No Rank 2011-09-27 19:41:30
2845693 seinsurance.net 0 No Rank 2011-09-27 19:41:34
2845694 comworks.jp 0 No Rank 2011-09-27 19:41:37
2845695 segev.com 0 No Rank 2011-09-27 19:41:38
2845696 secure.chost.ca 0 3546909 2011-09-27 19:41:51
2845697 instaforex-pips.com 0 No Rank 2011-09-27 19:41:56
2845698 secretdiaryofacallgirlmusic.info 0 No Rank 2011-09-27 19:41:57
2845699 sylvia.bokmarke.nu 0 5976293 2011-09-27 19:42:00
2845700 secrents.com 0 5463779 2011-09-27 19:42:13
2845701 segelwetter.at 0 No Rank 2011-09-27 19:42:15
2845702 yokendo.com 0 No Rank 2011-09-27 19:42:17
2845703 seattlegroupons.com 0 No Rank 2011-09-27 19:42:24
2845704 p3e.rats.fi 0 No Rank 2011-09-27 19:42:25
2845705 seattlefutsal.com 0 21070580 2011-09-27 19:42:28
2845706 seatrekcozumel.com 0 23810173 2011-09-27 19:42:29
2845707 seasonspetfood.com 0 No Rank 2011-09-27 19:42:33
2845708 zacharyworkm614.insanejournal.com 0 5036 2011-09-27 19:42:36
2845709 mkstech.com 0 21804006 2011-09-27 19:42:36
2845710 searchenginerankingsydney.com 0 17998930 2011-09-27 19:42:37
2845711 seaoflight.net 0 23749523 2011-09-27 19:42:42
2845712 seanseal.com 0 No Rank 2011-09-27 19:42:47
2845713 seanfranks.com 0 No Rank 2011-09-27 19:42:50
2845714 seamlessit.ca 0 No Rank 2011-09-27 19:42:52
2845715 boxgames.eu 0 519663 2011-10-14 01:12:48
2845716 se-nbn.com 0 No Rank 2011-09-27 19:43:05
2845717 sdsilkscreen.com 0 15753515 2011-09-27 19:43:07
2845718 sdhccard.info 0 No Rank 2011-09-27 19:43:23
2845719 vip-safe.ru 0 2254787 2011-09-27 19:43:31
2845720 thesoundofthestick.commons.gc.cuny.edu 0 4851 2011-09-27 19:43:35
2845721 scubashirtclub.com 0 28351178 2011-09-27 19:43:48
2845722 20.cn411.ca 0 175855 2011-09-27 19:43:49
2845723 scrubjump.com 0 18567614 2011-09-27 19:43:58
2845724 centeru.com 0 13573709 2011-09-27 19:44:09
2845725 screwballranch.com 0 No Rank 2011-09-27 19:44:15
2845726 scout4pro.com 0 No Rank 2011-09-27 19:44:23
2845727 xxboxtv.com 0 1696244 2011-09-27 19:44:23
2845728 scottp.net 0 27343800 2011-09-27 19:44:32
2845729 sdmtwxw.com 0 No Rank 2011-09-27 19:44:33
2845730 scottbracher.com 0 No Rank 2011-09-27 19:44:38
2845731 autotradeleaders.com 0 10172892 2011-09-27 19:44:46
2845732 scmsolutioninc.com 0 No Rank 2011-09-27 19:44:46
2845733 bsat366.org 0 No Rank 2011-09-27 19:44:48
2845734 sck-ostralo.se 0 No Rank 2011-09-27 19:44:52
2845735 medicalinc.net 0 7666317 2011-09-27 19:44:54
2845736 schulseite-ssb.ch.vu 0 No Rank 2011-09-27 19:44:54
2845737 en.cn411.ca 0 175855 2011-09-27 19:44:55
2845738 new-technology-news.net 0 No Rank 2011-09-27 19:44:58
2845739 schule-rorschach.ch 0 No Rank 2011-09-27 19:45:00
2845740 scholarsships.com 0 No Rank 2011-09-27 19:45:06
2845741 schlosserei-bornschlegl.de 0 No Rank 2011-09-27 19:45:07
2845742 schlegelpushbuttons.com 0 No Rank 2011-09-27 19:45:14
2845743 schicksales.com 0 No Rank 2011-09-27 19:45:14
2845744 z-rommel.de 0 8828617 2011-09-27 19:45:20
2845745 schickrazors.net 0 No Rank 2011-09-27 19:45:21
2845746 schereck-designs.com 0 No Rank 2011-09-27 19:45:22
2845747 scchiropractic.org 0 4368623 2011-09-27 19:45:28
2845748 westerndigitalusbharddrive.blogspot.com 0 No Rank 2011-09-27 19:45:28
2845749 scarpiello.com 0 No Rank 2011-09-27 19:45:29
2845750 celebpub.com 0 20173366 2011-09-27 19:45:35
2845751 scandinavianlink.com 0 No Rank 2011-09-27 19:45:36
2845752 scarlet4ever.net 0 24043418 2011-09-27 19:45:37
2845753 scanaiken.com 0 No Rank 2011-09-27 19:45:43
2845754 istikbal.com 0 320602 2011-09-27 19:45:46
2845755 scams.se 0 16267334 2011-09-27 19:45:50
2845756 saxy-q.nl 0 6280773 2011-09-27 19:45:54
2845757 satellitetv101.net 0 6044308 2011-09-27 19:45:56
2845758 mkmstech.com 0 No Rank 2011-09-27 19:45:57
2845759 saxofrance.free.fr 0 208 2011-09-27 19:45:59
2845760 house.sofaandcouches.com.nu 0 10637 2011-09-27 19:46:02
2845761 sawcotexas.com 0 No Rank 2011-09-27 19:46:03
2845762 saveblackwater.org 0 No Rank 2011-09-27 19:46:11
2845763 cloudsgo.com 0 No Rank 2011-09-27 19:46:11
2845764 saugonianplus.com 0 No Rank 2011-09-27 19:46:12
2845765 doncybex.com 0 No Rank 2011-09-27 19:46:25
2845766 tt-gratuit.com 0 3887206 2011-09-27 19:46:26
2845767 saudi-club.org 0 13229199 2011-09-27 19:46:29
2845768 satellitehighschool.com 0 20479232 2011-09-27 19:46:31
2845769 qriocity.com 0 33762 2011-09-27 19:46:33
2845770 satansslavesmc-metelen.de 0 No Rank 2011-09-27 19:46:36
2845771 sasquatch.es 0 No Rank 2011-09-27 19:46:40
2845772 dywd.cn 0 No Rank 2011-09-27 19:46:43
2845773 saskatoon-home-search.com 0 No Rank 2011-09-27 19:46:45
2845774 lovestick.de 0 No Rank 2011-09-27 19:46:50
2845775 saran-basket.com 0 No Rank 2011-09-27 19:46:51
2845776 sarahplantmusic.com 0 No Rank 2011-09-27 19:47:03
2845777 mehdiresul.net 0 8465348 2011-09-27 19:47:07
2845778 cinijosh.com 0 1219596 2011-09-27 19:47:10
2845779 sarahmillsjewelry.com 0 No Rank 2011-09-27 19:47:12
2845780 sarconfwa.org 0 No Rank 2011-09-27 19:47:16
2845781 saorisantacruz.com 0 16701083 2011-09-27 19:47:17
2845782 santechnikos.projektas.lt 0 367901 2011-09-27 19:47:27
2845783 constipationinpregnancy.com 0 No Rank 2011-09-27 19:47:27
2845784 sanjaytrehan.com 0 13010650 2011-09-27 19:47:38
2845785 saninova.nl 0 No Rank 2011-09-27 19:47:42
2845786 sandoz-sa.com 0 No Rank 2011-09-27 19:47:45
2845787 sandiegopodiatrygroup.com 0 18661703 2011-09-27 19:47:50
2845788 sandiegogators.com 0 22886950 2011-09-27 19:47:52
2845789 franzii.rcbil.nu 0 1415752 2011-09-27 19:48:00
2845790 sanderbijl.com 0 No Rank 2011-09-27 19:48:00
2845791 systems.lib.clemson.edu 0 34545 2011-09-27 19:48:02
2845792 sanbernardinojailbailbond.com 0 No Rank 2011-09-27 19:48:02
2845793 18shouji.com 0 1225739 2011-09-27 19:48:03
2845794 samulime.net 0 No Rank 2011-09-27 19:48:08
2845795 samsweets.ca 0 No Rank 2011-09-27 19:48:11
2845796 fieroe-fieroe.blogspot.com 0 2616285 2011-09-27 19:48:14
2845797 nunta-mare-buget-mic.com 0 5293754 2011-09-27 19:48:15
2845798 samsungln46a850.net 0 7781076 2011-09-27 19:48:18
2845799 samre.info 0 9762601 2011-09-27 19:48:18
2845800 samoskyspizza.com 0 8746329 2011-09-27 19:48:26
2845801 samida.neuf.fr 0 6680 2011-09-27 19:48:28
2845802 sambuilds.com 0 No Rank 2011-09-27 19:48:32
2845803 forexxx.net 0 No Rank 2011-09-27 19:48:32
2845804 saloonalyans.com 0 No Rank 2011-09-27 19:48:36
2845805 salonbellissimabellingham.com 0 10167695 2011-09-27 19:48:41
2845806 salon-nikol.cz 0 No Rank 2011-09-27 19:48:46
2845807 salon-kallos.com 0 No Rank 2011-09-27 19:48:47
2845808 salmo.com.pl 0 2161655 2011-09-27 19:48:54
2845809 salesinjector.com 0 No Rank 2011-09-27 19:48:59
2845810 coolflooring123.wordpress.com 0 No Rank 2011-09-27 19:49:06
2845811 stat-hub.com 0 No Rank 2011-09-27 19:49:09
2845812 saleequipmentprice.com 0 14323167 2011-09-27 19:49:12
2845813 salon-hairspa.pl 0 No Rank 2011-09-27 19:49:16
2845814 acidkids.com 0 No Rank 2011-09-27 19:49:19
2845815 saladrecipe.com 0 No Rank 2011-09-27 19:49:19
2845816 saladplusonline.com 0 20182185 2011-09-27 19:49:26
2845817 sakuratokatana.se 0 No Rank 2011-09-27 19:49:27
2845818 sharpgls.com 0 No Rank 2011-09-27 19:49:28
2845819 sakuradai-sports.com 0 No Rank 2011-09-27 19:49:32
2845820 sakrum.ru 0 No Rank 2011-09-27 19:49:35
2845821 blogs.gardner-webb.edu 0 853167 2011-09-27 19:49:36
2845822 sweepcon.com 0 No Rank 2011-09-27 19:49:41
2845823 sajomavip.net 0 2669291 2011-09-27 19:49:42
2845824 saiyukai.org 0 No Rank 2011-09-27 19:49:44
2845825 deanbrandon.com 0 5080643 2011-09-27 19:49:48
2845826 saishraddhaelectricals.com 0 No Rank 2011-09-27 19:49:49
2845827 saintvincentgroup.com 0 No Rank 2011-09-27 19:49:54
2845828 hockshow.com 0 9820173 2011-09-27 19:49:54
2845829 homeroomdesigns.com 0 No Rank 2011-09-27 19:50:01
2845830 saintshockey.net 0 No Rank 2011-09-27 19:50:03
2845831 gamepilot.de 0 13694972 2011-09-27 19:50:06
2845832 saintmichaelparish-argao.org 0 No Rank 2011-09-27 19:50:08
2845833 groups.certified-partner.de.sg 0 24978387 2011-09-27 19:50:10
2845834 saintjosephchurch.net 0 No Rank 2011-09-27 19:50:13
2845835 sailoralexander.com 0 No Rank 2011-09-27 19:50:24
2845836 sailorsworld.com 0 15709188 2011-09-27 19:50:25
2845837 sahdec.com 0 No Rank 2011-09-27 19:50:29
2845838 saguaro1980.com 0 No Rank 2011-09-27 19:50:34
2845839 igtlogos.com 0 20095209 2011-09-27 19:50:35
2845840 sagliktransport.com.tr 0 No Rank 2011-09-27 19:50:37
2845841 saggingjowls.com 0 18766176 2011-09-27 19:50:44
2845842 sageyouth.org 0 No Rank 2011-09-27 19:50:44
2845843 mrvc.intanstore.tk 0 No Rank 2011-09-27 19:50:46
2845844 pctabletpc.co.uk 0 2080639 2011-09-27 19:50:52
2845845 vsemayki4073vj.chat.ru 0 24231 2011-09-27 19:50:52
2845846 sagatburton.com 0 No Rank 2011-09-27 19:50:59
2845847 sadeqzabihi.com 0 No Rank 2011-09-27 19:51:02
2845848 ftp.psma.com 0 6845814 2011-09-27 19:51:10
2845849 topgroen.nl 0 No Rank 2011-09-27 19:51:12
2845850 sacredheartwdmkofc.org 0 No Rank 2011-09-27 19:51:18
2845851 wangzai.info 0 No Rank 2011-09-27 19:51:20
2845852 sacramentopreforeclosureworkshop.com 0 No Rank 2011-09-27 19:51:26
2845853 sabroso.co.nz 0 No Rank 2011-09-27 19:51:27
2845854 s3graphics.jp 0 No Rank 2011-09-27 19:51:45
2845855 daoyongyuan.com 0 4511025 2011-09-27 19:51:47
2845856 eym.thor.edu 0 1031962 2011-09-27 19:51:53
2845857 rzucaniepalenia.info.pl 0 7698310 2011-09-27 19:51:56
2845858 ryuukyu.com 0 2490852 2011-09-27 19:52:04
2845859 rzshzz.com 0 No Rank 2011-09-27 19:52:07
2845860 rytmo.net 0 No Rank 2011-09-27 19:52:12
2845861 rysymphony.org 0 No Rank 2011-09-27 19:52:13
2845862 gatitul-miresei.ro 0 16636470 2011-09-27 19:52:13
2845863 rybarstvilibechov.cz 0 No Rank 2011-09-27 19:52:18
2845864 rmlumley.com 0 4417789 2011-09-27 19:52:18
2845865 daftariklanbaris.com 0 5183897 2011-09-27 19:52:23
2845866 rxk.se 0 No Rank 2011-09-27 19:52:27
2845867 easyprofitbotreview.info 0 2321639 2011-09-27 19:52:30
2845868 hunianjogja.info 0 26967721 2011-09-27 19:52:34
2845869 rwv.com 0 16724858 2011-09-27 19:52:35
2845870 ryanhorsfall.com 0 25391039 2011-09-27 19:52:44
2845871 rvserviceandsales.com 0 6068869 2011-09-27 19:52:45
2845872 ruthbdesigns.com 0 No Rank 2011-09-27 19:52:53
2845873 ruta68.cl 0 14723389 2011-09-27 19:52:57
2845874 russiangirlsabroaddating.com 0 20585164 2011-09-27 19:53:01
2845875 russellhillchiropractic.com 0 No Rank 2011-09-27 19:53:03
2845876 codestyle.eu 0 11061304 2011-09-27 19:53:10
2845877 runmiami.com 0 3702191 2011-09-27 19:53:11
2845878 runframe.com 0 No Rank 2011-09-27 19:53:15
2845879 runamux.net 0 2616395 2011-09-27 19:53:19
2845880 rumblers.cc 0 No Rank 2011-09-27 19:53:27
2845881 www4.cn411.ca 0 175855 2011-09-27 19:53:28
2845882 opera-mini.tk 0 No Rank 2011-09-27 19:53:33
2845883 bridesweddingsandmore.com 0 No Rank 2011-09-27 19:53:34
2845884 ruffer.us 0 No Rank 2011-09-27 19:53:37
2845885 ruilongsh.com 0 No Rank 2011-09-27 19:53:43
2845886 rudysguideservice.com 0 No Rank 2011-09-27 19:53:43
2845887 rudibohoc.hu 0 No Rank 2011-09-27 19:53:49
2845888 fsghealth.com 0 16706207 2011-09-27 19:53:50
2845889 rubyplanet.net 0 No Rank 2011-09-27 19:53:51
2845890 rubyfilms.com 0 22530063 2011-09-27 19:53:54
2845891 rubicon.org 0 No Rank 2011-09-27 19:53:56
2845892 yokendo.co.jp 0 No Rank 2011-09-27 19:54:00
2845893 rtsixty.com 0 No Rank 2011-09-27 19:54:01
2845894 rsolani.org 0 No Rank 2011-09-27 19:54:08
2845895 rsmithfineart.com 0 No Rank 2011-09-27 19:54:09
2845896 rsmbentleyjennisoncr.com 0 No Rank 2011-09-27 19:54:14
2845897 customgaragedoors.org 0 No Rank 2011-09-27 19:54:16
2845898 rpow.net 0 18549545 2011-09-27 19:54:20
2845899 maps.intanstore.tk 0 No Rank 2011-09-27 19:54:21
2845900 armandeus.com 0 4280499 2011-09-27 19:54:24
2845901 royalgreensveggie.com 0 19884701 2011-09-27 19:54:27
2845902 royalhomesmuskoka.com 0 No Rank 2011-09-27 19:54:27
2845903 cupcakesupplies.buyqm.com 0 1623657 2011-09-27 19:54:32
2845904 terrorpix.com 0 No Rank 2011-09-27 19:54:36
2845905 royaleexotic.com 0 No Rank 2011-09-27 19:54:37
2845906 roxroros.nl 0 No Rank 2011-09-27 19:54:38
2845907 et.byu.edu 0 6932 2011-09-27 19:54:39
2845908 roulettebust.com 0 5252942 2011-09-27 19:54:44
2845909 roulettetrick.org 0 3100253 2011-09-27 19:54:48
2845910 cosaverde.com 0 1657409 2011-09-27 19:54:53
2845911 rottweilerleather.com 0 26537871 2011-09-27 19:54:57
2845912 rotoco.pl 0 24510757 2011-09-27 19:54:57
2845913 peterpaul.com 0 4386572 2011-09-27 19:55:01
2845914 roth-kippe.com 0 No Rank 2011-09-27 19:55:03
2845915 rostest-spb.ru 0 4670083 2011-09-27 19:55:05
2845916 roses-4-life.com 0 No Rank 2011-09-27 19:55:12
2845917 clemjanes.com 0 No Rank 2011-09-27 19:55:17
2845918 rosenmazdalv.com 0 17691694 2011-09-27 19:55:20
2845919 rosenberg-art.com 0 No Rank 2011-09-27 19:55:22
2845920 rosefountains.com 0 No Rank 2011-09-27 19:55:26
2845921 blogs.adams.edu 0 602799 2011-09-27 19:55:27
2845922 gradimages.ca 0 9644770 2011-09-27 19:55:27
2845923 rose-rose-rose.net 0 1061201 2011-09-27 19:55:33
2845924 rosario.gentina.com.ar 0 20764881 2011-09-27 19:55:33
2845925 roomexnet.com 0 No Rank 2011-09-27 19:55:39
2845926 ronniecase.com 0 No Rank 2011-09-27 19:55:39
2845927 www2.cn411.ca 0 175855 2011-09-27 19:55:50
2845928 romerentalpoint.com 0 27346207 2011-09-27 19:55:51
2845929 romaniabycar.com 0 27392073 2011-09-27 19:55:55
2845930 romance101.net 0 No Rank 2011-09-27 19:55:57
2845931 parant.org.uk 0 No Rank 2011-09-27 19:55:58
2845932 timmymcfarla25199.webs.com 0 No Rank 2011-09-27 19:55:59
2845933 rollomoto.com 0 No Rank 2011-09-27 19:56:03
2845934 rolly-sushi.ru 0 11881062 2011-09-27 19:56:03
2845935 rolliespizza.com 0 No Rank 2011-09-27 19:56:10
2845936 rolfwilkinson.com 0 No Rank 2011-09-27 19:56:15
2845937 rolfsdekk.no 0 No Rank 2011-09-27 19:56:18
2845938 rojodragons.com 0 No Rank 2011-09-27 19:56:20
2845939 chowlaiki.net 0 21056763 2011-09-27 19:56:21
2845940 roiflex.com 0 No Rank 2011-09-27 19:56:25
2845941 roguevalleysportingclays.org 0 No Rank 2011-09-27 19:56:26
2845942 rodeoking.biz 0 6261557 2011-09-27 19:56:31
2845943 cheatpilot.de 0 5380006 2011-09-27 19:56:32
2845944 rodelfoundationkw.org 0 No Rank 2011-09-27 19:56:35
2845945 trucktoyz.com 0 No Rank 2011-09-27 19:56:39
2845946 wow.sofaandcouches.com.nu 0 10637 2011-09-27 19:56:40
2845947 roddom2-35.ru 0 No Rank 2011-09-27 19:56:42
2845948 rockyshorephotography.com 0 No Rank 2011-09-27 19:56:43
2845949 annievail.com 0 No Rank 2011-09-27 19:56:45
2845950 rockyhensel.com 0 No Rank 2011-09-27 19:56:48
2845951 rockworkunlimited.net 0 No Rank 2011-09-27 19:56:51
2845952 demoticker.de 0 14545750 2011-09-27 19:56:54
2845953 rocknrollwine.com 0 12070778 2011-09-27 19:56:59
2845954 e-sofaandcouches.com.nu 0 10637 2011-09-27 19:57:02
2845955 rocketiq.com 0 24190976 2011-09-27 19:57:03
2845956 women.intanstore.tk 0 No Rank 2011-09-27 19:57:05
2845957 rochester-boating.org 0 No Rank 2011-09-27 19:57:09
2845958 rochelleswanson.net 0 No Rank 2011-09-27 19:57:15
2845959 roccobar.ru 0 No Rank 2011-09-27 19:57:17
2845960 cuvillage.com 0 1507210 2011-09-27 19:57:17
2845961 roccahotels.fi 0 No Rank 2011-09-27 19:57:23
2845962 sophie.johansson.nu 0 1065127 2011-09-27 19:57:24
2845963 robinsonranch.org 0 No Rank 2011-09-27 19:57:26
2845964 robholley.net 0 2220100 2011-09-27 19:57:31
2845965 timberzen.biz 0 No Rank 2011-09-27 19:57:32
2845966 robertsongroupinc.com 0 2027628 2011-09-27 19:57:33
2845967 robertahaskin.com 0 No Rank 2011-09-27 19:57:37
2845968 roastgroove.com 0 No Rank 2011-09-27 19:57:45
2845969 robbonline.se 0 5170299 2011-09-27 19:57:45
2845970 roasberryassociates.com 0 17370929 2011-09-27 19:57:50
2845971 roanecountyhandyman.com 0 No Rank 2011-09-27 19:57:51
2845972 roamer-watches.info 0 19180495 2011-09-27 19:57:57
2845973 myigt.igt.com 0 158587 2011-09-27 19:57:59
2845974 freeattack.uk.tc 0 478197 2011-09-27 19:58:06
2845975 rnb-in.de.vu 0 No Rank 2011-09-27 19:58:08
2845976 www2.rmcil.edu 0 13810048 2011-09-27 19:58:09
2845977 rmgfelm.com 0 15239480 2011-09-27 19:58:10
2845978 rlbest.com 0 No Rank 2011-09-27 19:58:17
2845979 timmymcfarla25.livejournal.com 0 86 2011-09-27 19:58:18
2845980 rkparochiedronrijp.nl 0 No Rank 2011-09-27 19:58:19
2845981 gagner-de-argent.1s.fr 0 343462 2011-09-27 19:58:23
2845982 rkhbathmat.com 0 No Rank 2011-09-27 19:58:26
2845983 riversidedomainbroker.com 0 11794246 2011-09-27 19:58:29
2845984 netcaptain.de 0 4949672 2011-09-27 19:58:30
2845985 riveroaksvillasapartments.com 0 No Rank 2011-09-27 19:58:31
2845986 buy-targetedfacebook-fans.info 0 No Rank 2011-09-27 19:58:34
2845987 ritz-kansai.com 0 No Rank 2011-09-27 19:58:39
2845988 ads.iland.net 0 528195 2011-09-27 19:58:44
2845989 ristorantedaquinto.com 0 No Rank 2011-09-27 19:58:45
2845990 risingsparrowpress.com 0 22850565 2011-09-27 19:58:48
2845991 games.aarp.org 0 3946 2011-09-27 19:58:54
2845992 blogs.tncc.edu 0 684953 2011-09-27 19:58:59
2845993 portal.tc3.edu 0 335422 2011-09-27 19:59:17
2845994 rioave-fc.pt 0 2669611 2011-09-27 19:59:23
2845995 ringprom.ru 0 No Rank 2011-09-27 19:59:24
2845996 rindenmulch.info 0 No Rank 2011-09-27 19:59:27
2845997 obdrochis.info 0 1905007 2011-09-27 19:59:34
2845998 rimanshipping.com 0 No Rank 2011-09-27 19:59:34
2845999 rigidfze.com 0 21183923 2011-09-27 19:59:35